• In Uzbekistan
  • List of Countries
  • For 7 days
  • Water Temperature
  • Satellite Maps
  • Weather Map
  • Weather Widgets
  • user-avatar
    Login

    Hourly Weather Dugga

    Today, 11 December, Tuesday

    Time Temperature Precipitation Wind Pressure Humidity
    00:00 +10°C° 0 mm 7 mps 726 mmHg 74%
    01:00 +9°C° 0 mm 5 mps 726 mmHg 77%
    02:00 +9°C° 0 mm 5 mps 726 mmHg 78%
    03:00 +9°C° 0 mm 5 mps 726 mmHg 78%
    04:00 +9°C° 0 mm 5 mps 725 mmHg 79%
    05:00 +10°C° 0 mm 4 mps 725 mmHg 80%
    06:00 +10°C° 0 mm 4 mps 725 mmHg 81%
    07:00 +8°C° 0 mm 4 mps 725 mmHg 83%
    08:00 +10°C° 0 mm 4 mps 725 mmHg 78%
    09:00 +10°C° 0 mm 5 mps 726 mmHg 73%
    10:00 +12°C° 0 mm 5 mps 726 mmHg 68%
    11:00 +13°C° 0 mm 5 mps 726 mmHg 65%
    12:00 +13°C° 0 mm 5 mps 725 mmHg 61%
    13:00 +14°C° 0 mm 5 mps 725 mmHg 57%
    14:00 +14°C° 0 mm 4 mps 725 mmHg 56%
    15:00 +14°C° 0 mm 4 mps 725 mmHg 56%
    16:00 +14°C° 0 mm 3 mps 724 mmHg 56%
    17:00 +14°C° 0 mm 2 mps 724 mmHg 62%
    18:00 +12°C° 0 mm 2 mps 724 mmHg 68%
    19:00 +11°C° 0 mm 1 mps 724 mmHg 75%
    20:00 +11°C° 0 mm 1 mps 724 mmHg 76%
    21:00 +10°C° 0 mm 1 mps 724 mmHg 78%
    22:00 +9°C° 0 mm 0 mps 724 mmHg 79%
    23:00 +10°C° 0 mm 1 mps 724 mmHg 79%

    Tomorrow, 12 December, Wednesday

    Time Temperature Precipitation Wind Pressure Humidity
    00:00 +9°C° 0 mm 1 mps 724 mmHg 80%
    01:00 +9°C° 0 mm 1 mps 724 mmHg 80%
    02:00 +9°C° 0 mm 1 mps 724 mmHg 80%
    03:00 +9°C° 0 mm 1 mps 724 mmHg 81%
    04:00 +9°C° 0 mm 1 mps 723 mmHg 81%
    05:00 +8°C° 0 mm 1 mps 723 mmHg 80%
    06:00 +8°C° 0 mm 1 mps 723 mmHg 80%
    07:00 +8°C° 0 mm 1 mps 723 mmHg 79%
    08:00 +10°C° 0 mm 1 mps 724 mmHg 72%
    09:00 +12°C° 0 mm 1 mps 724 mmHg 64%
    10:00 +13°C° 0 mm 1 mps 724 mmHg 56%
    11:00 +15°C° 0 mm 2 mps 724 mmHg 51%
    12:00 +16°C° 0 mm 2 mps 724 mmHg 45%
    13:00 +17°C° 0 mm 3 mps 724 mmHg 39%
    14:00 +17°C° 0 mm 3 mps 724 mmHg 41%
    15:00 +16°C° 0 mm 2 mps 723 mmHg 43%
    16:00 +16°C° 0 mm 2 mps 723 mmHg 44%
    17:00 +14°C° 0 mm 2 mps 723 mmHg 50%
    18:00 +13°C° 0 mm 1 mps 722 mmHg 56%
    19:00 +11°C° 0 mm 1 mps 722 mmHg 61%
    20:00 +11°C° 0 mm 1 mps 722 mmHg 62%
    21:00 +11°C° 0 mm 1 mps 722 mmHg 62%
    22:00 +11°C° 0 mm 1 mps 722 mmHg 63%
    23:00 +11°C° 0 mm 1 mps 722 mmHg 62%

    Day after tomorrow, 13 December, Thursday

    Time Temperature Precipitation Wind Pressure Humidity
    00:00 +9°C° 0 mm 2 mps 722 mmHg 61%
    01:00 +9°C° 0 mm 2 mps 721 mmHg 60%
    02:00 +9°C° 0 mm 2 mps 721 mmHg 60%
    03:00 +9°C° 0 mm 2 mps 721 mmHg 59%
    04:00 +9°C° 0 mm 2 mps 721 mmHg 59%
    05:00 +9°C° 0 mm 2 mps 720 mmHg 59%
    06:00 +9°C° 0 mm 2 mps 720 mmHg 59%
    07:00 +9°C° 0 mm 2 mps 720 mmHg 59%
    08:00 +10°C° 0 mm 2 mps 720 mmHg 55%
    09:00 +13°C° 0 mm 2 mps 720 mmHg 50%
    10:00 +15°C° 0 mm 2 mps 720 mmHg 46%
    11:00 +16°C° 0 mm 2 mps 720 mmHg 43%
    12:00 +17°C° 0 mm 2 mps 719 mmHg 40%
    13:00 +18°C° 0 mm 2 mps 719 mmHg 37%
    14:00 +18°C° 0 mm 2 mps 718 mmHg 38%
    15:00 +18°C° 0 mm 2 mps 718 mmHg 38%
    16:00 +19°C° 0 mm 1 mps 717 mmHg 38%
    17:00 +16°C° 0 mm 2 mps 717 mmHg 42%
    18:00 +15°C° 0 mm 2 mps 717 mmHg 46%
    19:00 +13°C° 0 mm 2 mps 716 mmHg 50%
    20:00 +13°C° 0 mm 2 mps 716 mmHg 49%
    21:00 +13°C° 0 mm 2 mps 716 mmHg 49%
    22:00 +12°C° 0 mm 2 mps 715 mmHg 49%
    23:00 +12°C° 0 mm 2 mps 715 mmHg 48%

    14 December, Friday

    Time Temperature Precipitation Wind Pressure Humidity
    00:00 +12°C° 0 mm 2 mps 714 mmHg 48%
    01:00 +11°C° 0 mm 3 mps 714 mmHg 47%
    02:00 +11°C° 0 mm 3 mps 714 mmHg 47%
    03:00 +11°C° 0 mm 3 mps 713 mmHg 47%
    04:00 +11°C° 0 mm 3 mps 713 mmHg 48%
    05:00 +10°C° 0 mm 2 mps 713 mmHg 50%
    06:00 +10°C° 0 mm 2 mps 712 mmHg 52%
    07:00 +9°C° 0 mm 2 mps 712 mmHg 55%
    08:00 +10°C° 0 mm 3 mps 712 mmHg 50%
    09:00 +11°C° 0 mm 4 mps 712 mmHg 46%
    10:00 +12°C° 0 mm 5 mps 713 mmHg 41%
    11:00 +12°C° 0 mm 5 mps 713 mmHg 42%
    12:00 +13°C° 0 mm 5 mps 713 mmHg 42%
    13:00 +13°C° 0 mm 4 mps 713 mmHg 42%
    14:00 +12°C° 0.1 mm 5 mps 713 mmHg 46%
    15:00 +12°C° 0.1 mm 5 mps 713 mmHg 50%
    16:00 +10°C° 0.1 mm 6 mps 713 mmHg 54%
    17:00 +9°C° 0 mm 5 mps 714 mmHg 63%
    18:00 +8°C° 0 mm 5 mps 714 mmHg 71%
    19:00 +7°C° 0 mm 5 mps 715 mmHg 79%
    20:00 +8°C° 0.2 mm 5 mps 715 mmHg 80%
    21:00 +8°C° 0.2 mm 6 mps 716 mmHg 80%
    22:00 +9°C° 0.2 mm 6 mps 717 mmHg 81%
    23:00 +9°C° 0.9 mm 8 mps 717 mmHg 81%

    15 December, Saturday

    Time Temperature Precipitation Wind Pressure Humidity
    00:00 +8°C° 0.9 mm 10 mps 718 mmHg 81%
    01:00 +8°C° 0.9 mm 11 mps 718 mmHg 82%
    02:00 +8°C° 0.2 mm 11 mps 719 mmHg 80%
    03:00 +8°C° 0.2 mm 10 mps 719 mmHg 78%
    04:00 +8°C° 0.2 mm 9 mps 719 mmHg 77%
    05:00 +7°C° 0.1 mm 9 mps 720 mmHg 76%
    06:00 +7°C° 0.1 mm 9 mps 720 mmHg 74%
    07:00 +6°C° 0.1 mm 8 mps 720 mmHg 73%
    08:00 +7°C° 0 mm 10 mps 721 mmHg 69%
    09:00 +8°C° 0 mm 11 mps 722 mmHg 64%
    10:00 +8°C° 0 mm 12 mps 723 mmHg 60%
    11:00 +9°C° 0 mm 12 mps 723 mmHg 57%
    12:00 +9°C° 0 mm 12 mps 723 mmHg 55%
    13:00 +10°C° 0 mm 12 mps 723 mmHg 52%
    14:00 +9°C° 0 mm 12 mps 723 mmHg 53%
    15:00 +9°C° 0 mm 12 mps 723 mmHg 54%
    16:00 +9°C° 0 mm 12 mps 723 mmHg 55%
    17:00 +8°C° 0 mm 11 mps 723 mmHg 58%
    18:00 +8°C° 0 mm 10 mps 724 mmHg 62%
    19:00 +7°C° 0 mm 9 mps 724 mmHg 65%
    20:00 +7°C° 0 mm 8 mps 724 mmHg 66%
    21:00 +7°C° 0 mm 8 mps 725 mmHg 67%
    22:00 +6°C° 0 mm 8 mps 725 mmHg 68%
    23:00 +6°C° 0 mm 8 mps 725 mmHg 69%

    16 December, Sunday

    Time Temperature Precipitation Wind Pressure Humidity
    00:00 +6°C° 0 mm 7 mps 725 mmHg 70%
    01:00 +6°C° 0 mm 7 mps 725 mmHg 72%
    02:00 +6°C° 0 mm 7 mps 726 mmHg 72%
    03:00 +6°C° 0 mm 7 mps 726 mmHg 73%
    04:00 +6°C° 0 mm 7 mps 726 mmHg 74%
    05:00 +7°C° 0 mm 6 mps 726 mmHg 75%
    06:00 +7°C° 0 mm 6 mps 726 mmHg 76%
    07:00 +7°C° 0 mm 6 mps 726 mmHg 78%
    08:00 +8°C° 0 mm 6 mps 727 mmHg 75%
    09:00 +9°C° 0 mm 7 mps 727 mmHg 73%
    10:00 +10°C° 0 mm 7 mps 728 mmHg 71%
    11:00 +10°C° 0 mm 7 mps 728 mmHg 69%
    12:00 +11°C° 0 mm 8 mps 728 mmHg 66%
    13:00 +11°C° 0 mm 8 mps 728 mmHg 63%
    14:00 +11°C° 0 mm 7 mps 728 mmHg 64%
    15:00 +11°C° 0 mm 7 mps 728 mmHg 65%
    16:00 +11°C° 0 mm 6 mps 728 mmHg 67%
    17:00 +10°C° 0 mm 5 mps 728 mmHg 72%
    18:00 +9°C° 0 mm 3 mps 728 mmHg 78%
    19:00 +8°C° 0 mm 2 mps 728 mmHg 84%
    20:00 +9°C° 0 mm 1 mps 729 mmHg 84%
    21:00 +9°C° 0 mm 1 mps 729 mmHg 85%
    22:00 +9°C° 0 mm 1 mps 729 mmHg 85%
    23:00 +9°C° 0 mm 1 mps 729 mmHg 87%
    Show more